Back to catalog

KINEIS-1D

AliveCommunicationsSSO
NORAD 60082·PAYLOAD·🇫🇷 France

Launched Jun 20, 2024 from Rocket Lab Launch Complex 1

Loading…

Next Passes (next 24 hours)

TLE

FreshSource: Space-Track

Epoch: Sep 14, 2026, 12:08 UTC

1 60082U 24114D   26257.50616565  .00000399  00000-0  64741-4 0  9991
2 60082  97.9874 276.6730 0000132 143.4573 216.6645 14.76421704120308

Track KINEIS-1D in real time with AllMySat

Download on the App Store